TimeCDT,TemperatureF,Dew PointF,Humidity,Sea Level PressureIn,VisibilityMPH,Wind Direction,Wind SpeedMPH,Gust SpeedMPH,PrecipitationIn,Events,Conditions,WindDirDegrees,DateUTC
12:52 AM,69.1,66.0,90,29.97,10.0,SE,3.5,-,N/A,,Clear,130,2013-06-14 05:52:00
1:52 AM,66.9,64.0,90,29.97,10.0,Calm,Calm,-,N/A,,Clear,0,2013-06-14 06:52:00
2:52 AM,69.1,64.9,87,29.96,10.0,East,4.6,-,N/A,,Clear,90,2013-06-14 07:52:00
3:52 AM,69.1,64.9,87,29.96,10.0,East,5.8,-,N/A,,Clear,100,2013-06-14 08:52:00
4:52 AM,69.1,64.9,87,29.94,10.0,East,8.1,-,N/A,,Clear,100,2013-06-14 09:52:00
5:52 AM,69.1,64.9,87,29.95,10.0,ESE,9.2,-,N/A,,Clear,110,2013-06-14 10:52:00
6:52 AM,69.1,64.9,87,29.96,10.0,ESE,9.2,-,N/A,,Clear,120,2013-06-14 11:52:00
7:52 AM,72.0,66.0,81,29.98,10.0,ESE,10.4,-,N/A,,Clear,120,2013-06-14 12:52:00
8:52 AM,75.9,68.0,76,29.98,10.0,SE,8.1,-,N/A,,Clear,130,2013-06-14 13:52:00
9:52 AM,80.1,69.1,69,29.98,10.0,SSE,11.5,24.2,N/A,,Clear,160,2013-06-14 14:52:00
10:52 AM,82.9,71.1,67,29.96,10.0,SSE,12.7,-,N/A,,Clear,150,2013-06-14 15:52:00
11:52 AM,86.0,73.0,65,29.95,10.0,South,13.8,-,N/A,,Clear,180,2013-06-14 16:52:00
12:52 PM,88.0,73.0,61,29.94,10.0,South,12.7,18.4,N/A,,Clear,170,2013-06-14 17:52:00
1:52 PM,90.0,73.0,57,29.92,10.0,South,15.0,-,N/A,,Clear,180,2013-06-14 18:52:00
2:52 PM,91.0,73.0,55,29.91,10.0,South,11.5,-,N/A,,Clear,180,2013-06-14 19:52:00
3:52 PM,91.9,73.0,54,29.89,10.0,South,11.5,19.6,N/A,,Clear,180,2013-06-14 20:52:00
4:52 PM,91.9,73.9,55,29.88,10.0,South,12.7,-,N/A,,Partly Cloudy,190,2013-06-14 21:52:00
5:52 PM,91.0,73.0,55,29.86,10.0,South,13.8,-,N/A,,Clear,180,2013-06-14 22:52:00
6:52 PM,89.1,73.9,61,29.85,10.0,South,12.7,-,N/A,,Clear,170,2013-06-14 23:52:00
7:52 PM,86.0,73.9,67,29.86,10.0,South,6.9,-,N/A,,Clear,170,2013-06-15 00:52:00
8:52 PM,82.0,73.0,74,29.87,10.0,SSE,8.1,-,N/A,,Clear,160,2013-06-15 01:52:00
9:52 PM,81.0,73.9,79,29.89,10.0,SE,6.9,-,N/A,,Clear,130,2013-06-15 02:52:00
10:52 PM,80.1,73.0,79,29.92,10.0,SE,6.9,-,N/A,,Clear,130,2013-06-15 03:52:00
11:52 PM,78.1,73.0,84,29.92,10.0,SE,8.1,-,N/A,,Clear,140,2013-06-15 04:52:00